Orbital Elements at Epoch 2459000.5 (2020-May-31.0) TDB
Reference: JPL 20 (heliocentric ecliptic J2000)
Element | Value | Uncertainty (1-sigma) | Units |
e | .1838903224598964 | 3.6718e-08 | |
a | 2.223818837381992 | 8.8467e-09 | au |
q | 1.814880074283425 | 8.1273e-08 | au |
i | 3.846193493342067 | 4.7357e-06 | deg |
node | 8.519196619154242 | 6.1127e-05 | deg |
peri | 231.044403666965 | 6.3048e-05 | deg |
M | 120.3866090736284 | 1.9645e-05 | deg |
tp | 2458595.436402942934 (2019-Apr-21.93640294) | 6.4705e-05 | TDB |
period | 1211.28833233735 3.32 | 7.2281e-06 1.979e-08 | d yr |
n | .2972042166916029 | 1.7735e-09 | deg/d |
Q | 2.632757600480558 | 1.0474e-08 | au |
|
| | Orbit Determination Parameters
Additional Information
|